{"data":{"norad_id":64259,"intl_designator":"2025-120D","name":"STARLINK-34306","alt_names":[],"object_type":"PAYLOAD","status":"ACTIVE","operator":null,"country":"US","launch_date":"2025-06-04","launch_site_code":"AFWTR","launch_vehicle":null,"mission":null,"orbit_class":"UNKNOWN","rcs_meters":null,"size_class":null,"mass_kg":null,"dimensions":null,"purposes":["comms"],"wikipedia_slug":null,"has_3d_model":false,"image_url":null,"decayed_at":null,"tle_current":{"epoch":"2026-05-25T04:38:29.829120Z","epoch_age_seconds":68538,"freshness":"FRESH","line1":"1 64259U 25120D   26145.19340080  .00029392  00000+0  87729-3 0  9999","line2":"2 64259  53.1601 118.8984 0000937  63.3694 296.7404 15.34412239 55616","mean_motion":15.34412239,"eccentricity":9.37e-5,"inclination_deg":53.1601,"raan_deg":118.8984,"arg_perigee_deg":63.3694,"mean_anomaly_deg":296.7404,"bstar":0.00087729,"rev_number":5561,"period_min":93.847009519324,"perigee_km":462.02588023963,"apogee_km":463.30784688366,"semimajor_km":6840.8038635616,"source":"CELESTRAK","updated_at":"2026-05-25T13:38:20.357283Z"}}}